sat.trackr.live / text

‹ back to catalog

STARLINK-11733 [DTC]

NORAD 64072 · 2025-107J

PAYLOAD ACTIVE UNKNOWN

§ Identity

Operator
Country
US
Launch date
2025-05-21
Launch site
AFETR
Launch vehicle
Mass (kg)
RCS (m²)

Purposes: comms

External: N2YO · Heavens-Above · Gunter

§ Orbital elements

Epoch: 2026-05-24T21:26:56.639040Z

Period
91.66 min
Inclination
43.0010°
Eccentricity
0.0002360
Mean motion
15.71070222 rev/d
Perigee alt
354.2 km
Apogee alt
357.4 km
Semi-major
6,734.0 km
B*
2.2155e-3
RAAN
358.8380°
Arg perigee
256.9781°
Mean anomaly
103.0824°
Rev number
5,928

§ Raw data

STARLINK-11733 [DTC]1 64072U 25107J   26144.89371110  .00297091  00000+0  22155-2 0  99952 64072  43.0010 358.8380 0002360 256.9781 103.0824 15.71070222 59282

JSON: /api/v1/satellites/64072 · /tle

For live sub-satellite position, see the globe view (requires WebGL).

§ Visibility from observer

Set your observer location to see the next 7 days of passes ≥ 10°. The values pass through the URL so the page stays shareable.

No JS? Fill the form by hand. The geolocation button needs JavaScript.